RH
45 47 49 49 49 49 50 46 35 54 60 65 78 86 86 81 84 70 53 56 60 45 32 62 85 73 71 65 63 62 64 57 53 52 55 47 25 30 45 41 43 42 44 44 44
50 49 50 47 45 46 51 51 45 37 32 27 90 85 70 87 94 67 59 65 64 58 38 34 86 85 75 69 68 68 64 57 50 54 60 57 34 28 40 44 46 45 45 45 44
53 52 51 51 51 51 50 44 40 39 38 36 32 66 95 89 93 62 72 64 69 71 49 31 51 100 83 75 73 70 66 58 48 58 62 64 49 29 32 42 45 46 45 46 45
62 59 59 58 60 53 49 44 40 37 32 32 35 56 91 97 88 83 71 61 65 75 61 35 34 94 95 82 74 70 74 61 49 59 65 64 58 30 23 33 39 45 46 46 45
64 60 63 68 69 62 52 43 41 43 41 47 41 65 76 70 50 70 81 61 48 76 66 41 52 66 86 74 81 77 79 66 58 63 64 62 57 59 27 24 29 35 40 42 41
70 70 75 75 80 68 58 46 42 42 60 69 73 73 66 65 69 75 72 63 68 68 69 47 59 66 76 89 82 71 79 70 65 67 66 62 55 60 20 21 21 22 29 31 34
78 84 76 84 94 78 67 51 46 50 54 57 66 78 68 58 78 88 78 60 75 78 69 50 53 81 96 90 76 84 84 77 70 64 60 59 52 48 41 30 17 14 16 20 23
83 85 98 100 100 91 77 62 54 59 64 65 81 90 78 64 70 74 69 70 100 77 64 42 71 98 98 93 86 87 87 86 71 71 56 65 46 41 27 16 19 25 29 24 15
89 85 99 100 100 99 97 95 74 78 84 82 85 92 82 68 75 73 78 76 100 73 59 62 91 98 99 94 95 85 83 80 76 61 61 59 46 36 32 34 37 42 36 28 26
82 88 97 100 100 99 98 98 97 91 97 98 83 91 83 74 66 68 73 75 97 82 60 88 98 98 96 95 97 97 81 79 71 69 66 56 45 34 34 40 42 41 38 36 35
79 92 96 100 99 98 97 98 99 100 78 80 74 68 70 72 76 84 74 72 95 98 61 99 99 99 96 80 77 76 68 70 71 70 74 53 47 37 28 34 38 40 36 37 36
70 95 99 100 99 98 98 99 98 97 96 95 81 72 67 68 74 71 77 64 94 98 62 99 100 98 90 83 81 86 84 80 76 78 77 70 49 38 31 26 35 36 32 31 34
69 94 100 100 99 98 98 98 98 98 98 88 74 69 65 65 63 90 73 59 94 100 67 93 98 90 95 86 87 90 77 77 86 79 75 74 57 41 30 28 26 30 34 30 34
47 88 91 100 99 99 98 98 98 98 97 84 79 74 65 79 63 95 69 63 98 93 70 94 100 88 97 81 82 87 84 82 87 89 84 70 55 49 37 25 24 34 36 32 36
17 54 91 97 100 98 97 99 98 98 97 90 89 93 60 65 82 79 64 85 91 85 83 97 98 96 95 96 80 96 86 86 89 91 86 64 52 45 37 32 31 38 36 37 35
26 29 60 88 96 99 98 98 98 98 96 97 97 95 72 70 81 79 62 89 98 87 82 100 93 100 82 88 87 93 81 89 94 90 60 57 50 38 23 35 34 38 36 37 34
26 36 46 68 86 99 98 98 97 98 89 97 96 98 78 68 91 84 59 98 98 98 98 99 100 99 100 99 100 98 86 95 95 79 64 49 50 35 29 33 33 34 35 37 38
26 37 52 64 86 98 98 98 99 94 88 92 80 97 87 70 96 82 56 95 99 83 91 100 100 98 96 100 93 97 92 83 76 69 58 55 50 28 36 34 38 33 37 38 40
23 40 47 65 83 99 99 98 89 92 97 79 81 91 90 77 96 75 66 76 98 87 68 98 99 97 82 84 88 99 98 87 60 67 66 54 50 42 41 36 37 36 35 38 41
26 42 49 64 88 100 98 98 96 99 96 53 72 82 81 83 99 84 80 74 93 75 69 72 91 97 96 99 99 90 83 97 64 66 71 61 52 44 39 38 38 34 33 37 42
30 56 76 90 99 100 98 98 98 99 85 57 76 72 58 80 99 89 80 95 99 84 86 68 70 91 94 96 96 96 97 90 65 56 64 60 43 38 38 35 36 34 37 39 44
38 63 93 100 99 98 98 98 100 94 88 82 81 52 48 60 88 96 87 94 87 83 84 74 61 78 91 88 91 78 84 84 54 59 55 55 46 40 34 38 35 36 39 44 52
64 89 99 100 99 99 99 99 99 93 88 84 77 78 58 75 99 94 90 76 82 96 71 72 68 78 76 74 68 84 86 68 63 52 49 54 45 42 39 37 36 37 38 47 53
87 96 100 94 96 100 99 99 99 97 96 94 77 81 94 90 83 91 100 97 91 88 72 69 62 64 73 70 65 67 74 69 55 54 51 49 45 41 42 42 38 36 38 43 46
83 93 92 84 81 96 100 100 99 99 99 100 100 84 81 87 89 87 99 98 100 96 90 79 66 60 58 57 59 56 61 59 55 55 53 50 46 36 43 50 47 41 42 44 50
58 86 64 84 81 91 100 99 100 100 100 99 96 89 90 70 83 81 64 94 96 100 91 89 80 62 54 56 61 60 58 55 53 52 52 51 44 40 46 53 48 43 48 50 48
18 42 56 75 89 98 98 100 100 99 100 98 80 82 93 84 75 69 58 68 85 92 94 92 73 66 70 60 62 65 53 54 53 49 38 45 32 45 52 49 45 45 44 45 48
Wind_Speed
21 23 23 23 23 24 25 28 31 39 39 33 31 36 32 31 35 37 43 39 37 39 41 41 37 33 29 27 24 21 23 25 23 17 11 10 12 14 13 13 14 15 16 14 13
21 23 23 21 20 21 23 24 29 33 37 36 36 37 37 34 35 38 35 36 36 35 39 41 39 35 32 30 27 23 27 26 22 16 13 12 12 16 18 17 14 15 16 17 15
21 22 21 19 20 18 18 20 23 27 30 32 35 31 35 34 41 45 33 32 33 33 38 38 40 37 35 32 28 27 32 22 21 18 16 15 11 16 20 21 14 19 19 21 18
22 21 22 20 19 18 16 17 19 21 23 26 29 36 39 37 39 38 40 38 34 33 39 37 40 40 39 35 32 31 30 24 21 17 17 16 16 14 23 22 19 20 22 23 22
21 22 20 20 16 15 16 16 17 17 18 20 25 27 33 38 45 43 22 19 30 37 43 39 36 40 40 38 32 33 29 23 18 18 18 19 17 18 24 25 27 24 25 27 26
18 19 22 20 17 15 16 17 16 15 12 14 20 26 33 40 40 34 40 33 21 39 40 39 36 34 36 39 35 32 25 23 22 21 21 23 20 21 12 20 24 29 30 32 30
25 25 26 20 17 15 15 16 16 15 12 15 20 24 32 38 32 21 33 32 28 36 39 37 34 32 37 34 34 30 26 24 24 22 22 22 26 18 20 22 20 25 29 33 31
25 25 28 25 22 15 14 16 17 17 15 19 20 23 30 32 30 28 23 32 26 35 36 35 36 32 28 31 19 30 27 28 27 24 18 17 29 14 13 9 13 10 15 18 19
21 22 24 23 18 15 12 12 17 17 18 22 22 21 27 28 27 21 25 31 25 34 38 39 39 33 32 28 27 22 23 28 23 18 15 13 22 6 6 6 8 6 8 9 10
22 22 23 20 16 15 11 13 17 20 22 23 24 21 24 13 14 22 25 25 27 29 41 44 39 35 40 36 29 25 27 19 19 8 9 14 23 16 9 11 12 12 8 8 8
22 22 25 25 19 15 14 18 22 25 32 29 24 25 20 8 10 18 25 25 34 24 47 47 39 44 43 37 29 21 24 24 19 14 16 15 20 14 12 14 16 17 15 14 12
21 22 25 28 20 14 16 27 26 31 30 24 29 29 22 23 11 14 23 28 37 28 46 43 36 38 35 37 31 20 17 20 17 14 16 20 25 17 16 16 21 20 17 15 14
18 21 23 25 19 16 20 23 23 26 29 21 23 27 26 21 24 17 26 28 32 26 46 46 22 41 35 37 35 28 25 17 13 12 17 23 26 16 9 14 19 24 18 16 14
16 18 20 27 22 17 17 23 20 28 14 15 26 27 27 19 25 17 28 31 26 28 43 33 15 38 34 34 36 32 27 22 15 13 7 12 9 23 19 15 19 15 16 16 14
16 21 19 26 26 11 10 22 23 17 4 5 18 13 25 31 13 23 28 33 20 30 39 19 36 43 38 35 33 27 25 21 17 17 18 18 9 8 19 19 15 13 17 16 14
16 17 16 23 26 13 14 12 23 8 6 8 12 22 26 29 20 19 33 33 15 23 41 17 31 25 38 30 31 27 18 18 14 13 7 18 14 12 2 5 7 16 18 15 13
16 16 16 20 23 17 10 15 12 7 5 10 19 23 26 29 24 26 40 40 15 24 38 16 22 34 26 33 28 25 20 1 1 5 5 4 8 18 15 10 4 8 17 16 13
15 15 15 17 23 15 12 21 10 7 16 5 18 22 23 25 21 28 36 42 23 24 33 16 12 27 26 29 28 26 27 8 5 4 2 7 8 2 3 3 4 13 15 16 14
14 15 16 16 17 19 21 19 9 13 13 19 21 28 18 27 16 28 36 40 28 26 22 26 8 23 19 28 29 25 23 24 2 1 0 5 6 9 9 9 9 12 21 19 16
12 14 13 13 15 20 23 18 16 10 15 26 22 26 24 31 17 27 31 33 35 29 19 23 8 24 23 19 26 24 25 16 10 4 3 4 7 6 6 8 5 10 20 22 20
11 11 9 9 13 23 23 16 14 12 18 28 15 21 25 29 11 24 29 20 30 36 22 19 17 18 20 20 29 30 22 16 13 7 3 1 1 4 9 8 7 8 19 21 17
9 10 6 9 17 20 26 18 2 14 15 16 13 21 24 34 24 27 27 12 25 36 35 24 23 22 30 19 23 27 32 29 11 5 12 2 5 10 20 9 7 10 16 17 17
6 7 8 10 14 13 18 6 14 21 22 17 15 16 26 27 17 32 20 28 21 38 34 28 15 18 15 19 19 28 28 25 34 18 15 7 5 2 7 4 7 8 11 16 18
9 6 8 13 18 17 12 11 22 25 24 19 18 16 19 25 15 21 22 22 26 35 29 26 17 23 18 17 24 33 32 32 29 27 20 28 21 19 12 10 12 12 15 20 23
14 11 10 10 17 15 12 5 25 26 22 16 23 20 27 23 21 23 19 26 33 34 41 23 10 22 22 28 25 33 33 37 39 39 28 34 33 28 27 26 20 21 21 22 23
18 17 13 15 17 16 12 9 15 17 12 20 17 19 25 24 26 34 25 32 37 39 45 29 19 17 18 19 21 28 36 37 36 37 39 40 38 32 29 26 22 22 23 24 25
15 15 15 11 12 9 12 13 5 18 13 19 14 21 23 21 11 22 22 24 39 40 42 29 26 17 9 14 16 15 30 29 33 37 36 40 35 33 28 21 17 20 24 26 25
Wind_Direction
299 293 291 287 283 275 267 262 255 251 252 257 246 254 261 261 257 248 245 247 237 241 236 227 231 235 237 239 239 240 245 249 255 266 277 276 242 236 234 227 218 213 225 235 239
303 299 296 292 285 273 264 261 257 254 253 248 242 249 259 253 254 253 247 243 238 233 236 228 225 230 234 237 236 235 240 249 254 265 275 271 264 246 236 237 227 228 234 244 251
306 304 299 294 293 284 280 263 253 250 251 248 246 245 242 250 256 256 248 243 240 228 235 229 222 224 230 233 232 236 241 246 249 257 271 276 268 256 244 229 233 235 233 247 253
306 307 301 297 299 303 284 271 263 257 251 248 244 239 245 249 252 259 259 244 238 223 227 224 218 218 223 225 230 235 241 243 247 253 263 277 276 260 245 238 233 239 244 245 252
310 308 298 297 305 301 289 276 265 256 253 248 242 235 236 241 244 246 248 248 237 224 221 218 214 214 220 227 227 235 244 245 248 251 257 270 271 279 255 237 246 248 252 256 255
316 312 309 311 313 304 289 267 254 254 254 253 249 243 241 243 248 244 246 244 230 223 218 214 210 213 219 227 231 240 247 251 252 256 259 270 272 275 275 263 255 248 251 258 260
319 317 314 319 320 304 273 257 251 250 247 248 253 251 246 246 246 253 242 235 235 218 211 212 204 205 215 222 230 235 247 254 252 254 259 275 273 282 288 281 260 244 251 259 267
317 327 315 314 307 301 265 251 250 246 240 243 241 248 249 248 244 242 244 223 225 214 203 196 195 201 207 218 219 229 237 247 248 253 263 276 274 324 309 284 244 238 267 275 272
316 314 306 299 293 288 255 262 252 249 245 241 240 246 257 250 246 233 232 218 212 207 192 187 190 199 203 203 211 221 221 236 260 259 253 256 277 299 276 226 220 258 263 257 243
315 311 313 306 298 271 247 263 244 236 236 239 239 239 249 256 240 223 224 222 205 203 188 187 192 198 202 200 204 192 216 228 243 225 243 260 281 290 245 249 238 263 245 235 238
309 313 321 302 293 263 222 241 230 228 236 242 245 241 240 289 202 212 216 214 205 205 188 186 196 201 197 201 203 216 224 227 234 258 268 273 282 280 261 260 245 248 250 245 243
310 302 303 305 297 256 235 253 256 251 244 241 240 238 234 235 231 233 204 205 204 205 190 188 205 199 198 199 205 196 203 220 246 251 272 281 277 277 272 257 243 246 252 248 242
306 305 294 298 303 262 245 253 265 261 239 238 238 240 231 240 228 229 199 199 203 201 191 191 211 200 196 197 205 215 216 219 234 259 278 296 294 299 268 241 249 245 245 242 231
295 306 320 302 297 269 251 251 258 264 233 245 231 233 217 224 221 213 195 192 202 203 190 200 177 195 197 200 203 211 213 219 238 286 290 310 293 280 292 274 259 245 226 217 221
300 287 307 319 294 270 256 244 257 245 245 224 217 222 205 213 211 206 189 187 208 199 182 190 204 192 195 202 202 213 218 226 256 272 286 285 275 282 296 294 267 212 199 206 214
304 298 291 303 312 253 261 238 228 189 239 193 192 195 192 204 206 190 183 191 195 196 191 217 199 187 203 205 216 206 210 234 241 255 268 270 235 287 310 2 199 199 197 207 208
304 299 299 295 301 297 254 191 170 227 201 193 186 191 189 187 195 187 184 192 171 163 193 200 170 200 194 193 198 204 205 57 79 213 229 211 228 259 279 266 320 202 210 211 208
305 297 295 290 293 289 230 182 218 238 210 192 194 183 184 188 194 187 192 196 190 174 184 191 164 191 202 195 197 190 193 173 189 191 232 231 232 228 350 268 262 202 209 217 212
302 295 294 281 284 276 229 202 240 252 244 173 173 175 183 188 187 186 200 201 187 163 172 199 184 181 197 203 204 200 199 203 294 125 163 243 270 281 287 286 265 217 196 200 206
300 300 289 278 291 267 227 242 236 273 164 169 160 183 196 187 186 188 195 208 205 170 181 191 134 182 186 193 204 218 215 197 218 186 222 269 266 255 281 293 279 215 195 195 202
300 297 287 274 294 223 231 240 272 186 171 174 177 174 198 193 181 179 197 199 203 175 168 195 185 174 183 194 194 196 195 194 212 208 164 232 200 97 29 344 239 207 200 198 203
284 273 273 269 245 236 243 259 183 155 169 173 197 184 193 196 210 201 195 180 204 180 182 168 195 167 199 207 214 221 210 199 203 192 219 186 242 282 313 300 282 210 188 189 206
263 268 280 298 217 255 265 270 168 174 177 189 182 197 196 189 182 191 212 199 202 176 175 175 181 146 176 208 203 213 209 217 220 233 224 185 205 262 328 271 256 220 199 200 219
216 247 255 274 285 272 261 196 179 181 188 186 193 207 188 179 182 174 175 194 202 188 169 188 187 197 191 205 197 198 210 213 224 225 231 237 242 248 254 283 268 252 232 223 233
221 228 252 271 306 300 266 251 190 197 182 197 198 209 197 184 185 194 170 177 184 188 184 199 193 209 222 227 225 220 219 215 223 231 229 247 248 255 259 268 267 250 242 238 241
227 228 258 276 297 287 262 258 219 220 201 182 198 198 182 190 192 184 185 186 182 190 187 205 217 219 216 217 216 223 226 228 234 241 246 252 257 256 260 267 252 240 242 246 253
233 232 247 281 294 277 287 294 237 191 172 182 176 183 172 185 191 196 197 188 179 181 191 198 200 201 205 199 208 229 230 230 235 242 247 247 253 253 255 242 238 253 254 256 260